Skip Page Navigation
NASA JPL Caltech
NASA Logo - Jet Propulsion Laboratory + View the NASA Portal
+ Near-Earth Object (NEO) Program
Search JPL
JPL Home Earth Solar System Stars & Galaxies Technology
JPL Solar System Dynamics
BODIES ORBITS EPHEMERIDES TOOLS PHYSICAL DATA DISCOVERY FAQ SITE MAP
JPL Small-Body Database Browser
Search: [ help ]  
134329 Cycnos (2377 T-3)
Classification: Jupiter Trojan          SPK-ID: 2134329
Ephemeris | Orbit Diagram | Orbital Elements | Physical Parameters | Discovery Circumstances ]

[ show orbit diagram ]
Orbital Elements at Epoch 2456400.5 (2013-Apr-18.0) TDB
Reference: MPO251220 (heliocentric ecliptic J2000)
 Element Value Uncertainty (1-sigma)   Units 
e 0.0805393 n/a  
a 5.1716137 n/a AU
q 4.7550956 n/a AU
i 17.39100 n/a deg
node 17.59829 n/a deg
peri 279.84185 n/a deg
M 82.20409 n/a deg
tp 2455419.5915617
(2010-Aug-11.09156170)
n/a JED
period 4295.7356232
11.76
n/a
n/a
d
yr
n 0.08380404 n/a deg/d
Q 5.5881318 n/a AU
  Orbit Determination Parameters
   # obs. used (total)      221  
   first obs. used      1977-??-??  
   last obs. used      2013-01-15  
   # oppositions      12  
   planetary ephem.      DE403  
   condition code      0  
   fit RMS      0.60  
   data source      MPC:mpu  
   producer      MPCLINUX  

Additional Information
 T_jup = 2.903 
 MPC Jupiter Trojan 

Ephemeris | Orbit Diagram | Orbital Elements | Physical Parameters | Discovery Circumstances ]

Physical Parameter Table
Parameter Symbol Value Units Sigma Reference Notes
absolute magnitude H 12.4 mag n/a MPO251220  

134329 Cycnos           Discovered 1977 Oct. 16 by C. J. van Houten and I. van Houten-Groeneveld on Palomar Schmidt plates taken by T. Gehrels.
Cycnos, an ally of Priam, was a son of Poseidon by a nymph. His body was firm as iron; he was invulnerable. Achilles tried three times to kill him with his spear, but without success. He then strangled him after Cycnos stumbled over a stone.
NOTE: some special characters may not display properly (any characters within {} are an attempt to place the proper accent above a character)
Reference: 20070730/MPCPages.arcLast Updated: 2007-08-07

Alternate Designations
 2377 T-3 = 2001 QO179 
Ephemeris | Orbit Diagram | Orbital Elements | Physical Parameters | Discovery Circumstances ]
ABOUT SSD CREDITS/AWARDS PRIVACY/COPYRIGHT GLOSSARY LINKS
FirstGov 2013-May-21 22:37 UT
(server date/time)  
NASA Home Page
Site Manager:   Donald K. Yeomans
Webmaster  Alan B. Chamberlin